Flag for Saint Kitts and Nevis Weather past 2 weeks in Basseterre, Saint Kitts and Nevis

Now
88 °F

Scattered clouds.


Feels Like: 102 °F
Forecast: 82 / 85 °F
Wind: 18 mph from East

Location: Golden Rock

Current Time: Jul 26, 2014 at 1:48:30 PM

Latest Report: Jul 26, 2014 at 1:00 PM


Visibility: N/A

Pressure: 30.04 "Hg

Humidity: 75%

Dew point: 79 °F

Location of BasseterreLocation

Historic Weather in Basseterre — Graph

°F

Basseterre temperature yesterday

Maximum temperature yesterday: 90 °F (at 2:00 PM)
Minimum temperature yesterday: 79 °F (at 8:00 PM)
Average temperature yesterday: 84 °F

Past Weeks' High & Low Weather Summary

 TemperatureHumidityPressure
High90 °F (Jul 25, 2:00 PM)100% (Jul 14, 9:00 PM)30.12 "Hg (Jul 14, 9:00 PM)
Low77 °F (Jul 14, 8:00 AM)59% (Jul 21, 12:00 PM)29.95 "Hg (Jul 19, 8:00 AM)
Average84 °F78%30.06 "Hg
* Reported Jul 11 12:00 Noon — Jul 26 12:00 Noon, Basseterre, Weather by CustomWeather, © 2014

Note: Actual official high and low records may vary slightly from our data, if they occured in-between our weather recording intervals... More about our weather records

Advertising

Basseterre weather history for previous 24 hours

 ConditionsComfort  
Time TempWeatherWind HumidityBarometerVisibility
12:00 PM
Jul 26
84 °FScattered clouds.15 mph84%30.04 "HgN/A
11:00 AM86 °FScattered clouds.14 mph75%30.04 "HgN/A
10:00 AM86 °FScattered showers. Passing clouds.13 mph75%30.04 "HgN/A
9:00 AM86 °FPassing clouds.15 mph75%30.04 "HgN/A
8:00 AM84 °FPassing clouds.14 mph79%30.04 "HgN/A
7:00 AM82 °FPassing clouds.17 mph79%30.04 "HgN/A
6:00 AM81 °FPassing clouds.18 mph84%30.01 "HgN/A
10:00 PM
Jul 25
82 °FPassing clouds.17 mph84%30.07 "HgN/A
9:00 PM82 °FPassing clouds.16 mph84%30.04 "HgN/A
8:00 PM79 °FPassing clouds.15 mph94%30.04 "HgN/A
7:00 PM82 °FPassing clouds.18 mph84%30.01 "HgN/A
6:00 PM84 °FPassing clouds.13 mph79%29.98 "HgN/A
5:00 PM84 °FBroken clouds.12 mph84%29.98 "HgN/A
4:00 PM84 °FPassing clouds.18 mph79%30.01 "HgN/A
3:00 PM88 °FPassing clouds.20 mph70%30.01 "HgN/A
2:00 PM90 °FPassing clouds.18 mph71%30.04 "HgN/A
1:00 PM88 °FPassing clouds.18 mph70%30.04 "HgN/A
Weather by CustomWeather, © 2014

See weather overviewHow to use our weather pages